GFSNE_prec_cloud_003.txt.gz
Cloud_Cover
5 5 5 65 95 100 100 100 100 82 6 97 24 8 70 40 89 18 84 100 100 100 100 100 100 100 52 100 83 1 25 66 5 5 5 82 100 72
5 5 5 49 67 100 100 100 100 99 51 98 100 100 100 100 100 99 79 100 100 100 100 100 100 100 100 37 3 1 0 1 5 2 5 14 78 98
5 5 36 84 57 59 100 100 100 100 96 22 100 100 100 100 100 100 100 100 94 100 100 100 100 100 80 26 9 5 5 7 1 5 2 6 36 61
5 5 5 1 3 19 66 100 100 100 100 41 99 100 100 100 100 100 100 100 100 100 100 100 98 97 49 24 100 78 5 96 40 2 5 2 1 6
9 5 5 0 0 1 76 54 99 56 100 85 54 100 100 100 100 100 100 100 100 100 100 100 100 100 57 5 89 100 62 32 77 23 5 1 0 0
4 0 0 0 0 0 0 48 86 91 66 5 5 92 100 100 100 98 9 100 100 100 100 100 100 84 13 6 51 100 100 94 12 7 35 5 5 5
5 4 0 1 5 3 12 34 54 84 6 4 85 12 100 100 100 100 86 53 100 100 100 79 34 57 99 82 22 88 100 100 82 57 5 5 3 5
4 5 5 5 69 100 92 100 100 78 12 5 5 5 89 82 86 96 64 98 99 84 92 35 9 67 68 48 7 8 44 100 100 100 66 19 5 2
13 5 5 92 76 85 100 100 100 100 99 89 53 7 63 72 8 36 65 54 6 74 58 48 18 64 86 75 51 46 5 5 95 95 5 22 5 5
94 55 22 80 100 100 82 26 19 14 53 26 5 6 26 99 5 68 81 94 82 100 98 35 100 66 100 6 5 5 12 97 81 78 58 5 5 5
72 89 91 30 100 100 100 83 84 7 25 6 30 81 97 92 99 100 97 75 73 66 15 5 15 10 6 5 5 5 9 5 5 5 5 4 5 5
100 100 100 100 100 100 100 98 80 26 5 5 11 73 74 65 96 95 76 98 100 70 50 96 5 5 6 5 5 6 5 5 5 5 0 0 0 7
100 100 100 100 100 100 100 95 89 92 95 74 5 5 21 15 51 97 63 18 51 85 100 100 13 45 54 77 100 99 93 30 38 70 84 8 5 5
100 100 100 100 100 100 100 100 100 100 96 98 96 97 98 98 100 100 98 75 81 74 100 97 86 5 14 50 64 100 100 98 34 64 80 99 73 41
100 100 100 100 100 100 100 100 100 100 100 100 100 100 100 100 100 100 100 100 99 87 90 100 100 97 100 86 35 100 98 99 97 67 100 84 78 55
100 100 100 100 100 100 100 100 100 100 100 100 100 100 100 100 100 100 95 96 98 98 94 75 78 96 100 99 100 100 100 100 97 56 100 96 100 45
100 100 100 100 100 100 100 100 100 100 100 100 100 100 100 100 100 100 100 98 100 70 81 92 100 100 100 100 100 100 100 68 55 26 94 22 99 68
100 100 100 100 100 100 95 100 100 100 100 100 85 91 96 98 97 96 91 94 84 76 61 22 91 100 100 91 96 87 96 99 100 85 96 99 62 61
100 100 100 100 100 100 100 100 100 100 100 100 100 92 100 100 92 95 85 100 100 99 100 88 100 100 100 90 67 97 100 100 92 100 100 85 84 86
95 100 100 100 100 100 100 100 100 100 100 100 100 99 98 94 83 100 95 95 100 88 98 100 86 97 97 83 77 66 54 77 91 75 88 86 93 78
96 100 100 100 100 100 100 100 100 100 100 100 100 100 100 100 97 77 82 69 75 68 55 93 86 87 99 100 100 91 70 88 70 71 51 58 42 74
49 94 100 100 100 100 100 100 100 100 100 100 100 100 100 100 100 100 99 74 80 71 58 64 43 68 86 75 85 81 97 73 49 5 7 21 23 91
48 24 88 100 100 100 100 100 100 100 100 100 100 100 100 100 100 100 100 100 88 73 57 99 25 91 57 85 84 97 72 49 95 84 69 92 6 5

GFSNE_prec_cloud_006.txt.gz
Cloud_Cover
0 0 5 5 9 80 100 100 100 100 88 39 6 27 100 59 16 92 92 92 100 100 100 100 100 100 100 100 69 79 12 0 100 100 100 100 100 100
0 0 0 1 30 77 100 97 100 100 100 44 88 89 100 99 93 5 6 73 62 100 100 100 100 100 100 100 100 83 72 19 39 100 78 98 100 100
4 4 5 5 4 0 7 31 50 94 100 95 99 90 100 100 100 48 80 100 92 100 100 100 100 100 100 100 100 100 100 100 87 1 2 5 27 100
16 7 5 5 0 0 0 0 0 6 48 43 82 100 100 100 100 100 23 28 100 100 100 100 100 100 100 100 100 100 100 9 100 87 2 3 1 5
5 5 5 4 0 0 0 0 0 0 92 90 13 98 100 100 100 100 40 39 100 100 100 100 100 100 100 100 99 100 100 72 5 21 5 3 10 1
80 87 31 3 0 2 38 17 41 4 4 99 78 100 88 77 100 100 92 94 100 100 100 100 97 100 100 93 100 97 4 4 5 5 5 5 5 74
2 0 4 4 5 48 100 100 100 99 78 22 10 68 5 3 80 100 100 87 99 44 99 100 77 99 100 61 98 100 63 58 71 41 5 5 5 9
5 5 5 5 5 5 14 89 100 100 100 100 100 100 45 5 5 79 97 100 78 5 92 100 100 100 92 82 63 100 100 92 5 99 5 10 100 100
5 5 5 35 100 22 5 43 100 90 100 100 23 5 5 5 2 8 5 5 50 44 77 47 99 92 79 80 86 85 11 92 5 4 19 4 12 57
5 5 6 99 100 91 43 86 93 100 78 5 5 5 5 5 5 5 5 13 88 100 71 48 92 44 100 100 46 7 33 88 65 20 4 1 42 100
48 53 94 100 100 100 100 85 82 99 92 34 61 98 57 89 74 81 99 100 100 100 38 5 25 5 6 73 100 93 70 99 85 85 100 8 4 94
38 99 100 100 100 100 100 100 95 97 94 23 5 5 10 58 5 22 82 100 100 100 100 7 100 49 5 70 96 39 24 6 5 75 99 100 72 5
54 94 100 100 100 100 100 100 100 100 90 87 60 9 5 5 5 5 5 87 94 27 17 42 49 22 62 65 5 5 5 6 66 18 5 5 76 12
100 94 100 100 100 100 100 100 100 100 100 100 97 82 68 70 67 64 63 78 66 82 97 96 61 6 9 56 75 25 5 5 15 8 13 5 5 5
94 100 100 100 100 100 100 100 100 100 100 100 100 100 100 99 97 98 97 91 98 100 100 100 98 50 85 80 41 91 8 5 39 20 34 41 29 27
82 90 100 100 100 100 100 100 100 100 100 100 100 100 100 100 100 100 100 100 100 92 74 80 65 100 98 86 97 91 100 83 17 30 98 99 97 96
75 71 97 100 100 100 100 100 100 100 100 100 100 100 100 100 100 100 100 100 97 98 100 93 86 81 100 100 100 100 82 100 100 16 74 40 13 34
31 72 89 100 100 100 100 94 100 100 100 100 100 100 100 100 100 100 100 99 99 96 91 89 95 100 100 88 86 96 96 99 98 84 80 87 92 28
39 62 72 94 100 100 100 98 100 100 100 100 100 100 100 100 99 89 94 91 99 94 96 84 92 100 100 100 90 100 100 100 100 97 32 88 71 9
60 68 82 77 100 100 100 100 100 78 78 99 97 97 100 100 100 84 84 88 80 98 71 82 56 60 55 62 91 79 83 96 100 100 100 99 95 96
60 62 72 84 82 100 100 100 100 100 100 100 100 100 100 100 100 100 93 97 87 46 52 36 65 22 11 64 83 73 70 84 60 71 88 94 91 93
69 57 61 72 78 94 100 100 100 100 100 100 100 100 100 100 100 100 100 98 98 100 73 46 33 12 38 46 61 82 88 93 36 5 6 21 38 74
57 54 57 70 65 68 95 100 100 100 100 100 100 100 100 100 100 100 100 100 100 100 98 100 41 54 83 95 45 93 75 65 93 91 33 11 7 5

GFSNE_prec_cloud_009.txt.gz
Cloud_Cover
75 66 0 0 0 0 1 28 89 69 7 5 6 83 100 100 88 5 5 100 97 35 79 100 100 97 53 100 100 100 100 7 0 4 80 100 100 100
84 81 5 0 4 2 5 5 4 16 27 5 5 83 100 100 100 66 5 5 93 76 100 100 100 100 100 90 100 100 100 100 4 1 57 100 100 100
76 5 5 5 5 5 5 5 3 5 5 5 0 32 91 100 100 100 35 5 5 5 5 46 100 100 100 100 100 100 100 100 92 48 1 20 89 45
5 55 70 5 5 5 5 0 0 0 5 5 1 9 20 100 100 100 100 16 5 66 4 39 100 100 100 98 100 81 100 100 100 100 69 2 0 2
98 91 57 3 0 0 0 5 17 19 48 16 1 80 14 90 100 100 100 100 16 5 8 96 39 100 100 100 100 100 100 100 100 100 100 96 41 1
76 5 2 3 5 1 5 11 74 100 100 84 5 24 93 74 3 61 100 98 90 52 99 90 100 100 100 99 75 100 100 100 100 100 100 100 73 9
4 5 5 5 5 5 26 41 30 95 100 100 100 98 87 49 5 3 21 100 38 85 73 100 100 100 100 100 100 100 100 100 100 100 100 100 100 100
88 35 19 5 5 39 89 100 100 100 100 100 99 100 100 95 70 5 5 5 31 5 69 100 100 100 100 100 100 100 100 100 100 100 100 100 100 5
98 100 36 7 19 51 88 100 100 100 100 100 100 100 100 100 49 5 5 5 5 12 5 82 98 100 99 100 100 75 100 100 100 100 100 100 28 6
5 5 60 79 96 99 100 100 100 100 99 100 100 100 72 5 10 5 5 5 31 5 5 90 36 38 45 96 54 5 20 100 100 100 100 100 99 100
5 5 95 100 99 100 100 100 100 100 99 57 85 95 99 100 98 92 95 100 100 99 26 9 50 7 8 5 27 100 100 49 85 100 100 100 100 40
5 6 59 100 100 100 100 100 100 100 98 100 78 6 5 5 23 99 68 98 100 95 22 98 8 5 5 24 7 5 45 78 5 5 80 5 5 4
81 60 82 100 100 100 100 100 100 100 100 96 100 95 80 51 5 5 5 5 50 96 35 6 96 21 13 59 6 5 15 5 4 38 17 5 5 2
100 76 100 100 100 100 100 100 100 100 100 99 99 100 100 96 74 53 55 82 54 5 56 100 99 53 60 79 60 7 5 5 12 5 5 5 5 5
16 99 87 100 100 100 100 100 100 100 100 100 100 100 100 100 100 100 97 97 98 96 100 98 65 24 82 91 55 64 8 5 58 5 58 99 96 38
7 50 31 100 100 100 100 100 100 100 100 100 100 100 100 100 100 100 100 100 100 100 99 100 85 99 100 86 100 98 66 99 62 36 26 90 100 100
22 59 74 96 100 100 100 100 100 100 100 100 100 100 100 100 100 100 100 100 100 100 86 92 97 94 100 100 100 100 100 100 31 69 90 76 17 7
20 76 91 74 100 100 100 100 100 97 100 100 100 100 100 100 100 100 100 100 100 100 100 96 100 100 98 80 83 86 100 97 100 99 100 100 81 65
41 71 100 100 71 100 100 100 100 91 83 100 100 100 100 100 100 100 100 88 98 81 89 100 99 100 100 100 89 100 100 100 99 100 100 100 99 32
70 79 100 100 80 76 100 100 100 100 67 68 100 96 85 98 99 100 100 98 100 99 95 86 91 99 100 98 95 95 98 95 100 100 100 98 92 86
55 65 77 95 75 71 92 100 100 100 100 100 88 94 92 94 77 85 86 95 97 81 70 73 75 69 79 82 91 69 56 98 75 68 75 89 91 80
61 58 27 76 73 70 80 94 100 100 100 100 100 100 100 100 100 100 100 100 84 82 71 96 54 29 36 10 50 93 89 89 70 11 6 15 30 62
86 79 58 65 83 72 65 66 68 100 100 100 100 100 100 100 100 100 100 100 100 100 100 100 100 100 74 81 63 90 100 100 93 88 35 5 11 5

GFSNE_prec_cloud_015.txt.gz
Cloud_Cover
0 0 0 0 0 0 5 5 90 80 7 5 5 5 5 5 3 1 5 6 100 57 6 5 14 100 64 77 100 18 100 75 85 6 5 25 99 88
4 0 1 0 2 5 5 35 99 96 90 4 5 2 4 1 5 0 4 5 100 100 96 16 64 100 100 72 100 100 100 100 99 43 5 5 17 88
4 3 0 5 5 6 42 66 61 72 100 1 5 9 66 90 7 2 5 58 100 100 99 96 7 64 100 100 7 39 99 100 98 100 17 38 66 95
7 0 2 5 5 68 96 97 99 100 100 98 88 100 100 100 100 5 20 83 100 100 100 100 98 58 97 100 100 59 73 100 100 99 100 100 38 18
4 5 5 5 41 99 100 100 100 100 100 100 100 100 100 100 100 78 52 93 100 66 100 100 100 100 83 87 26 100 84 100 100 58 100 98 64 100
5 5 13 89 89 92 100 100 100 100 100 100 100 100 100 100 100 100 100 89 60 100 92 97 51 98 61 100 28 100 100 94 100 100 98 99 84 96
5 5 5 36 63 84 100 100 100 100 100 100 100 100 100 100 100 100 100 100 91 43 16 50 5 51 62 6 90 100 100 100 100 100 100 100 100 100
2 5 5 5 59 100 100 100 95 100 100 100 100 100 100 100 100 100 100 100 87 66 5 5 4 15 72 32 11 100 100 100 100 100 100 100 100 100
5 5 7 86 100 100 100 87 100 96 100 100 100 100 100 100 100 100 100 100 100 100 96 25 5 4 72 100 100 96 100 100 100 100 100 100 100 100
5 19 99 100 100 99 100 100 100 100 100 100 100 100 100 100 100 100 100 100 100 99 100 93 46 38 64 100 100 100 100 100 100 100 100 100 100 100
28 94 100 100 100 100 100 100 100 100 100 88 88 100 100 99 92 100 100 100 100 96 100 100 96 97 89 5 90 100 100 100 100 100 100 100 100 100
43 24 100 100 100 100 100 100 100 100 100 100 100 100 100 100 86 97 100 100 100 100 100 100 100 99 97 9 6 92 100 100 100 100 100 100 100 91
5 5 82 100 92 88 94 100 100 100 100 100 100 100 100 100 100 100 100 100 100 100 99 96 100 100 100 100 100 42 7 100 86 98 100 100 100 97
11 5 59 54 12 53 98 100 100 99 100 100 100 100 100 100 100 100 100 100 100 100 100 99 100 100 100 100 98 43 30 64 10 5 40 94 100 86
33 5 5 5 5 30 84 79 100 98 100 100 100 100 100 100 100 100 100 100 100 100 73 85 79 99 100 100 100 93 100 98 26 27 7 5 5 23
5 5 5 5 4 5 5 21 100 100 99 100 100 100 100 100 100 100 100 100 100 100 100 100 98 100 100 100 100 100 100 98 88 89 67 39 92 100
5 5 5 5 5 5 5 58 85 93 100 100 100 100 100 100 100 100 100 100 100 100 100 100 100 100 100 100 100 100 100 100 98 100 100 92 77 74
5 5 5 5 5 5 5 5 72 100 100 100 100 100 100 100 100 100 100 100 100 100 100 100 100 100 100 100 100 100 100 100 100 100 100 100 91 97
68 25 52 68 5 5 5 5 5 87 100 100 100 100 100 100 100 100 100 100 100 100 100 100 100 100 100 100 100 83 100 100 100 100 100 100 100 100
20 25 52 69 38 5 5 5 5 5 56 94 100 100 100 100 100 100 100 100 100 100 100 98 100 98 100 100 100 100 100 100 100 100 100 100 100 100
97 61 53 59 67 65 38 5 16 5 12 45 99 100 100 100 100 100 100 100 99 99 100 100 97 90 86 88 100 100 100 93 90 99 100 100 100 100
85 86 31 30 73 80 88 68 8 7 5 34 54 98 100 100 100 100 100 100 100 100 91 93 98 100 100 100 99 76 90 100 81 98 67 33 96 100
79 84 86 60 71 78 57 84 13 12 21 5 22 64 94 98 100 100 100 100 99 94 99 100 100 100 100 100 86 100 99 98 100 100 100 73 14 5

GFSNE_prec_cloud_018.txt.gz
Cloud_Cover
100 100 100 100 100 100 100 100 100 98 11 6 8 24 40 87 86 60 6 5 5 5 5 29 26 5 13 100 100 99 64 52 100 87 42 90 26 99
100 100 100 100 100 100 100 100 100 100 56 29 41 100 100 100 100 100 99 8 5 5 5 52 94 59 5 83 92 98 100 20 33 100 70 96 92 80
100 100 100 100 100 100 100 100 100 100 100 2 100 100 100 100 100 100 100 100 88 96 5 5 100 98 81 5 5 11 46 100 70 5 49 5 5 12
100 100 100 100 100 100 100 100 100 100 100 86 100 100 100 100 100 100 100 100 100 100 30 99 96 100 100 100 26 20 16 100 100 96 7 7 5 5
95 14 69 65 80 72 84 99 100 100 100 100 100 100 100 100 98 100 100 99 100 100 20 73 95 100 100 100 100 44 68 81 7 85 100 56 92 69
66 58 76 18 5 5 17 93 100 100 100 100 100 100 100 100 100 100 100 100 100 100 100 41 77 100 97 100 100 80 86 100 71 71 6 83 66 60
71 26 4 4 5 39 73 99 100 100 100 100 100 100 100 100 100 100 100 100 100 100 100 100 100 93 100 100 100 100 99 100 100 100 100 100 100 96
5 0 1 5 70 6 92 84 60 100 100 100 100 100 100 100 100 100 100 100 100 100 100 100 100 100 100 100 67 100 100 100 100 100 100 100 100 100
1 0 5 5 98 100 100 100 100 100 100 99 100 100 100 100 100 100 100 100 100 100 100 100 100 100 100 100 69 100 100 100 100 100 100 100 100 100
5 5 5 36 100 84 100 100 100 100 100 100 100 100 100 100 100 100 100 100 100 100 100 100 100 100 100 100 45 100 100 100 100 100 100 100 100 100
5 5 5 24 97 84 100 100 100 100 100 100 99 100 16 9 32 87 100 100 100 100 100 100 100 100 100 100 96 100 100 100 100 100 100 100 100 100
11 5 5 44 45 98 98 100 100 100 100 100 100 100 100 100 65 80 100 100 100 100 100 100 100 100 100 100 97 100 100 100 100 100 100 100 100 100
54 49 5 17 45 59 44 96 86 96 100 100 100 100 100 100 100 100 100 100 100 100 100 100 100 100 100 100 100 100 100 100 100 100 100 100 100 100
84 99 26 5 5 10 5 9 64 66 100 100 100 100 100 100 100 100 100 100 100 100 100 100 100 100 100 100 100 100 100 99 100 100 100 100 100 100
84 26 5 5 5 0 0 5 38 98 100 100 100 100 100 100 100 100 100 100 100 99 93 100 100 100 100 100 100 100 100 99 98 98 100 100 100 100
100 84 26 5 5 2 8 8 5 31 99 100 100 100 100 100 100 100 100 100 100 100 97 98 100 100 100 100 100 99 97 100 96 100 96 97 100 100
6 97 100 100 38 41 39 49 52 5 70 100 100 100 100 100 100 100 100 100 100 100 100 100 98 97 100 100 100 100 100 99 96 99 94 95 51 74
74 100 100 100 100 94 93 97 98 17 5 97 100 100 100 100 100 100 100 100 100 100 100 100 100 100 100 100 97 100 100 100 100 96 100 100 100 100
90 100 100 100 98 98 65 8 82 73 5 49 100 100 100 100 100 100 100 100 100 100 100 100 100 100 100 100 100 100 100 100 88 97 100 100 100 99
81 100 100 100 100 100 84 16 5 57 93 5 52 100 100 100 100 100 100 100 100 100 100 100 100 100 100 100 100 91 95 88 100 100 100 100 99 87
100 100 100 100 100 100 100 100 96 79 16 66 99 94 100 100 100 100 100 100 100 100 100 100 100 100 100 100 100 99 100 100 94 90 92 97 100 100
100 100 100 100 100 100 100 100 98 100 100 38 41 98 100 99 100 100 100 100 100 100 100 100 100 100 100 100 100 100 100 100 100 100 96 82 99 100
100 100 100 100 100 100 100 100 100 100 100 79 37 5 95 100 86 100 100 100 98 92 100 100 100 100 100 100 100 100 92 96 98 93 73 83 78 21

GFSNE_prec_cloud_021.txt.gz
Cloud_Cover
90 97 75 87 100 99 100 100 92 37 16 91 66 94 100 20 13 40 31 49 81 22 3 5 0 0 5 5 1 5 100 80 92 100 100 100 100 40
100 100 95 92 68 100 100 100 98 45 9 44 72 100 81 96 100 78 57 15 5 5 36 0 0 0 5 5 5 1 96 100 100 99 100 100 100 100
100 95 71 97 100 100 100 100 100 77 14 4 80 64 100 99 100 90 82 30 38 9 77 64 5 5 2 5 5 5 9 100 100 97 97 100 95 100
100 83 100 100 96 92 98 92 91 61 92 70 12 97 100 100 100 99 91 100 97 90 96 97 19 50 5 67 26 5 5 40 100 98 100 98 100 98
100 100 97 83 96 34 12 5 5 30 87 82 44 82 96 99 93 98 100 88 100 78 66 100 98 77 1 5 94 5 5 97 100 100 95 55 29 100
92 99 100 100 20 5 4 5 49 100 100 93 83 100 100 100 95 97 83 100 93 98 100 100 100 37 0 37 73 80 5 3 66 100 100 100 100 100
96 87 95 7 0 0 5 63 100 100 100 100 100 80 100 100 100 96 100 99 88 86 100 100 100 80 56 5 87 17 100 75 66 56 100 100 100 100
100 62 5 23 77 5 87 95 52 100 100 100 100 100 100 100 98 100 100 100 98 98 100 100 100 100 97 99 84 9 100 100 74 100 100 100 100 100
50 20 6 5 66 69 82 100 99 75 70 57 100 97 100 100 100 99 100 100 100 94 100 100 100 100 60 100 90 2 100 100 100 100 100 100 100 100
64 60 64 76 72 5 7 64 95 100 100 89 66 76 100 100 100 100 100 100 80 62 100 100 100 100 82 32 71 2 60 100 100 100 100 100 100 100
99 91 47 5 35 5 7 71 70 89 100 89 50 21 43 20 9 94 93 100 83 97 99 100 100 100 90 46 5 4 100 100 100 100 100 100 100 100
98 97 100 5 4 5 5 16 66 80 5 22 84 97 100 100 64 89 100 100 100 100 100 100 100 87 58 100 3 4 100 100 100 100 100 100 100 100
70 86 100 26 3 5 5 33 77 5 50 100 100 100 100 100 100 100 100 100 100 100 94 100 100 100 99 100 100 56 90 100 100 100 100 100 100 100
91 97 92 7 3 5 4 4 4 19 96 100 100 100 100 99 100 98 100 100 100 99 100 100 100 100 100 100 100 96 44 100 100 100 100 100 100 100
86 48 5 5 5 5 57 5 7 100 85 100 100 100 100 100 100 99 100 100 84 99 100 100 100 100 100 87 98 100 100 100 100 100 100 100 100 100
74 97 30 13 21 22 80 100 100 100 66 97 100 100 100 100 100 100 100 100 100 97 96 86 99 100 100 72 57 46 86 100 100 100 100 100 99 100
11 31 99 100 89 100 100 100 100 100 100 30 100 100 100 100 100 100 100 100 100 100 100 100 97 34 68 93 96 94 99 64 100 94 100 79 95 93
52 100 99 100 100 100 100 100 100 100 100 77 100 100 100 100 100 100 100 100 100 100 100 100 100 100 91 38 33 95 100 76 5 37 61 80 99 92
87 99 100 100 100 100 100 100 100 100 38 100 100 100 100 100 100 100 100 100 100 100 100 100 100 100 100 100 100 100 100 100 96 14 43 68 100 100
94 100 100 100 100 99 100 100 100 100 100 100 100 100 100 100 100 100 100 100 100 100 100 100 100 100 100 100 100 100 100 100 100 95 75 96 86 66
100 98 95 98 98 100 99 99 100 99 84 99 99 100 100 100 100 100 100 100 100 100 100 100 100 100 100 100 100 100 100 100 100 100 100 100 95 76
98 100 100 98 100 100 95 100 100 100 100 100 100 100 100 100 100 100 100 100 100 100 100 100 100 100 100 100 100 100 100 100 100 100 100 81 90 100
98 100 100 95 99 100 99 100 100 100 100 100 100 100 100 100 100 100 100 100 100 98 100 100 100 100 100 100 100 100 100 100 100 100 100 100 100 100